User: anonymous   Login
Location: Broad Creek
(39.7000°N, 76.2570°W)
Time: 16:41:15
(UTC-04:00)
Language:

ETS-7 - Orbit

View from above orbital plane
View from above orbital plane
View from above satellite
View from above satellite

Ground track
Ground track

The orbit data is extracted from the following two-line orbital elements,

1 25064U 97074B   15184.64135735  .00042655  00000-0  25221-3 0  9994
2 25064 034.9493 251.1428 0003777 146.5703 343.1376 15.76968475980769
Epoch (UTC): 03 July 2015 15:23:33
Eccentricity: 0.0003777
inclination: 34.9493°
perigee height: 336 km
apogee height: 341 km
right ascension of ascending node: 251.1428°
argument of perigee: 146.5703°
revolutions per day: 15.76968475
mean anomaly at epoch: 343.1376°
orbit number at epoch: 98076

The dashed part of the orbit path shows where the satellite is in the earth's shadow,  

DLR